Time,TemperatureF,DewpointF,PressureIn,WindDirection,WindDirectionDegrees,WindSpeedMPH,WindSpeedGustMPH,Humidity,HourlyPrecipIn,Conditions,Clouds,dailyrainin,SoftwareType,DateUTC
2013-06-18 00:01:00,75.1,70.6,30.07,SSE,153,0.0,1.0,86,0.00,,-RA,0.06,VWS V14.01,2013-06-18 04:01:00,
2013-06-18 00:03:00,75.1,70.6,30.07,SSE,153,0.0,0.0,86,0.00,,BKN055,0.00,VWS V14.01,2013-06-18 04:03:00,
2013-06-18 00:04:00,75.1,70.6,30.07,SSE,153,0.0,0.0,86,0.00,,BKN055,0.00,VWS V14.01,2013-06-18 04:04:00,
2013-06-18 00:10:00,74.9,70.8,30.07,SSE,152,0.0,0.0,87,0.00,,BKN055,0.00,VWS V14.01,2013-06-18 04:10:00,
2013-06-18 00:13:00,74.9,70.8,30.07,SSE,153,0.0,0.0,87,0.00,,BKN055,0.00,VWS V14.01,2013-06-18 04:13:00,
2013-06-18 00:19:00,74.9,70.8,30.07,SSE,153,0.0,0.0,87,0.00,,BKN055,0.00,VWS V14.01,2013-06-18 04:19:00,
2013-06-18 00:25:00,74.7,70.9,30.07,SSE,153,0.0,0.0,88,0.00,,BKN055,0.00,VWS V14.01,2013-06-18 04:25:00,
2013-06-18 00:28:00,74.7,70.9,30.07,SSE,153,0.0,0.0,88,0.00,,BKN055,0.00,VWS V14.01,2013-06-18 04:28:00,
2013-06-18 00:34:00,74.6,71.2,30.07,SSE,153,0.0,0.0,89,0.00,,BKN055,0.00,VWS V14.01,2013-06-18 04:34:00,
2013-06-18 00:40:00,74.4,71.3,30.07,SSE,153,0.0,0.0,90,0.00,,BKN055,0.00,VWS V14.01,2013-06-18 04:40:00,
2013-06-18 00:46:00,74.2,71.4,30.07,SSE,153,0.0,0.0,91,0.00,,BKN055,0.00,VWS V14.01,2013-06-18 04:46:00,
2013-06-18 00:53:00,74.0,71.2,30.07,SSE,153,0.0,0.0,91,0.00,,BKN055,0.00,VWS V14.01,2013-06-18 04:53:00,
2013-06-18 00:59:00,73.9,71.4,30.07,SSE,153,0.0,0.0,92,0.00,,BKN055,0.00,VWS V14.01,2013-06-18 04:59:00,
2013-06-18 01:05:00,73.7,71.6,30.05,SSE,153,0.0,0.0,93,0.00,,BKN040,0.00,VWS V14.01,2013-06-18 05:05:00,
2013-06-18 01:10:00,73.7,71.6,30.05,SSE,153,0.0,0.0,93,0.00,,BKN040,0.00,VWS V14.01,2013-06-18 05:10:00,
2013-06-18 01:17:00,73.5,71.7,30.05,SSE,153,0.0,0.0,94,0.00,,BKN040,0.00,VWS V14.01,2013-06-18 05:17:00,
2013-06-18 01:23:00,73.3,71.8,30.05,SSE,153,0.0,0.0,95,0.00,,BKN040,0.00,VWS V14.01,2013-06-18 05:23:00,
2013-06-18 01:29:00,73.3,71.8,30.05,SSE,153,0.0,0.0,95,0.00,,BKN040,0.00,VWS V14.01,2013-06-18 05:29:00,
2013-06-18 01:35:00,73.2,71.7,30.04,SSE,153,0.0,0.0,95,0.00,,BKN040,0.00,VWS V14.01,2013-06-18 05:35:00,
2013-06-18 01:40:00,73.2,72.0,30.04,SSE,153,0.0,0.0,96,0.00,,BKN040,0.00,VWS V14.01,2013-06-18 05:40:00,
2013-06-18 01:47:00,73.0,71.8,30.04,SSE,153,0.0,0.0,96,0.00,,BKN040,0.00,VWS V14.01,2013-06-18 05:47:00,
2013-06-18 01:53:00,73.0,71.8,30.04,SSE,153,0.0,0.0,96,0.00,,BKN040,0.00,VWS V14.01,2013-06-18 05:53:00,
2013-06-18 01:59:00,72.8,71.6,30.04,SSE,153,0.0,0.0,96,0.00,,BKN040,0.00,VWS V14.01,2013-06-18 05:59:00,
2013-06-18 02:05:00,72.7,71.8,30.03,SSE,153,0.0,0.0,97,0.00,,BKN150,0.00,VWS V14.01,2013-06-18 06:05:00,
2013-06-18 02:10:00,72.5,71.6,30.03,SSE,153,0.0,1.0,97,0.00,,BKN150,0.00,VWS V14.01,2013-06-18 06:10:00,
2013-06-18 02:16:00,72.5,71.6,30.03,SSE,153,0.0,0.0,97,0.00,,BKN150,0.00,VWS V14.01,2013-06-18 06:16:00,
2013-06-18 02:22:00,72.3,71.4,30.03,SSE,153,0.0,0.0,97,0.00,,BKN150,0.00,VWS V14.01,2013-06-18 06:22:00,
2013-06-18 02:28:00,72.1,71.2,30.03,SSE,153,0.0,0.0,97,0.00,,BKN150,0.00,VWS V14.01,2013-06-18 06:28:00,
2013-06-18 02:34:00,72.0,71.1,30.03,SSE,153,0.0,0.0,97,0.00,,BKN150,0.00,VWS V14.01,2013-06-18 06:34:00,
2013-06-18 02:40:00,72.0,71.1,30.03,SSE,153,0.0,0.0,97,0.00,,BKN150,0.00,VWS V14.01,2013-06-18 06:40:00,
2013-06-18 02:46:00,71.8,70.9,30.02,SSE,153,0.0,0.0,97,0.00,,BKN150,0.00,VWS V14.01,2013-06-18 06:46:00,
2013-06-18 02:52:00,71.6,70.7,30.02,SSE,153,0.0,1.0,97,0.00,,BKN150,0.00,VWS V14.01,2013-06-18 06:52:00,
2013-06-18 02:58:00,71.6,70.7,30.02,SSE,153,0.0,1.0,97,0.00,,BKN150,0.00,VWS V14.01,2013-06-18 06:58:00,
2013-06-18 03:04:00,71.5,70.6,30.02,SW,227,0.0,0.0,97,0.00,,BKN150,0.00,VWS V14.01,2013-06-18 07:04:00,
2013-06-18 03:10:00,71.3,70.4,30.02,SW,228,0.0,1.0,97,0.00,,BKN150,0.00,VWS V14.01,2013-06-18 07:10:00,
2013-06-18 03:16:00,71.3,70.4,30.02,SW,228,0.0,1.0,97,0.00,,BKN150,0.00,VWS V14.01,2013-06-18 07:16:00,
2013-06-18 03:22:00,71.1,70.2,30.02,SW,228,0.0,0.0,97,0.00,,BKN150,0.00,VWS V14.01,2013-06-18 07:22:00,
2013-06-18 03:28:00,71.1,70.2,30.02,SW,228,0.0,0.0,97,0.00,,BKN150,0.00,VWS V14.01,2013-06-18 07:28:00,
2013-06-18 03:34:00,70.9,70.0,30.02,SW,228,0.0,1.0,97,0.00,,BKN150,0.00,VWS V14.01,2013-06-18 07:34:00,
2013-06-18 03:40:00,70.9,70.0,30.02,SW,228,0.0,1.0,97,0.00,,BKN150,0.00,VWS V14.01,2013-06-18 07:40:00,
2013-06-18 03:46:00,70.8,69.9,30.02,SW,228,0.0,0.0,97,0.00,,BKN150,0.00,VWS V14.01,2013-06-18 07:46:00,
2013-06-18 03:52:00,70.6,69.7,30.02,SW,228,0.0,0.0,97,0.00,,BKN150,0.00,VWS V14.01,2013-06-18 07:52:00,
2013-06-18 03:58:00,70.4,69.5,30.02,SW,228,0.0,1.0,97,0.00,,BKN150,0.00,VWS V14.01,2013-06-18 07:58:00,
2013-06-18 04:04:00,70.3,69.4,30.01,SW,228,0.0,0.0,97,0.00,,BKN200,0.00,VWS V14.01,2013-06-18 08:04:00,
2013-06-18 04:10:00,70.3,69.4,30.01,SW,228,0.0,0.0,97,0.00,,BKN200,0.00,VWS V14.01,2013-06-18 08:10:00,
2013-06-18 04:16:00,70.1,69.2,30.01,SW,228,0.0,0.0,97,0.00,,BKN200,0.00,VWS V14.01,2013-06-18 08:16:00,
2013-06-18 04:22:00,70.1,69.2,30.01,SW,228,0.0,0.0,97,0.00,,BKN200,0.00,VWS V14.01,2013-06-18 08:22:00,
2013-06-18 04:28:00,69.9,69.0,30.01,SW,228,0.0,0.0,97,0.00,,BKN200,0.00,VWS V14.01,2013-06-18 08:28:00,
2013-06-18 04:34:00,69.8,68.9,30.00,SW,232,0.0,0.0,97,0.00,,BKN200,0.00,VWS V14.01,2013-06-18 08:34:00,
2013-06-18 04:40:00,69.8,68.9,30.00,SW,232,0.0,0.0,97,0.00,,BKN200,0.00,VWS V14.01,2013-06-18 08:40:00,
2013-06-18 04:46:00,69.6,68.7,30.00,SW,232,0.0,0.0,97,0.00,,BKN200,0.00,VWS V14.01,2013-06-18 08:46:00,
2013-06-18 04:52:00,69.6,68.7,30.00,SW,232,0.0,0.0,97,0.00,,BKN200,0.00,VWS V14.01,2013-06-18 08:52:00,
2013-06-18 04:58:00,69.4,68.8,30.00,SW,232,0.0,0.0,98,0.00,,BKN200,0.00,VWS V14.01,2013-06-18 08:58:00,
2013-06-18 05:04:00,69.4,68.8,30.00,SW,232,0.0,0.0,98,0.00,,BKN200,0.00,VWS V14.01,2013-06-18 09:04:00,
2013-06-18 05:10:00,69.4,68.8,30.00,SW,232,0.0,0.0,98,0.00,,BKN200,0.00,VWS V14.01,2013-06-18 09:10:00,
2013-06-18 05:16:00,69.4,68.8,30.01,SW,232,0.0,0.0,98,0.00,,BKN200,0.00,VWS V14.01,2013-06-18 09:16:00,
2013-06-18 05:22:00,69.4,68.8,30.01,SW,232,0.0,0.0,98,0.00,,BKN200,0.00,VWS V14.01,2013-06-18 09:22:00,
2013-06-18 05:28:00,69.4,68.8,30.01,SW,232,0.0,0.0,98,0.00,,BKN200,0.00,VWS V14.01,2013-06-18 09:28:00,
2013-06-18 05:35:00,69.4,68.8,30.01,SW,232,0.0,0.0,98,0.00,,BKN200,0.00,VWS V14.01,2013-06-18 09:35:00,
2013-06-18 05:40:00,69.4,68.8,30.01,SW,232,0.0,0.0,98,0.00,,BKN200,0.00,VWS V14.01,2013-06-18 09:40:00,
2013-06-18 05:47:00,69.6,69.3,30.02,SW,232,0.0,0.0,99,0.00,,BKN200,0.00,VWS V14.01,2013-06-18 09:47:00,
2013-06-18 05:53:00,69.8,69.5,30.02,SW,232,0.0,0.0,99,0.00,,BKN200,0.00,VWS V14.01,2013-06-18 09:53:00,
2013-06-18 05:59:00,69.9,69.6,30.02,SW,232,0.0,0.0,99,0.00,,BKN200,0.00,VWS V14.01,2013-06-18 09:59:00,
2013-06-18 06:05:00,69.9,69.6,30.02,SW,230,0.0,0.0,99,0.00,,OVC008,0.00,VWS V14.01,2013-06-18 10:05:00,
2013-06-18 06:10:00,70.1,69.8,30.02,East,82,0.0,1.0,99,0.00,,OVC008,0.00,VWS V14.01,2013-06-18 10:10:00,
2013-06-18 06:17:00,70.1,69.5,30.02,East,82,0.0,0.0,98,0.00,,OVC008,0.00,VWS V14.01,2013-06-18 10:17:00,
2013-06-18 06:23:00,70.1,69.5,30.02,East,82,0.0,0.0,98,0.00,,OVC008,0.00,VWS V14.01,2013-06-18 10:23:00,
2013-06-18 06:29:00,70.3,69.7,30.02,East,82,0.0,0.0,98,0.00,,OVC008,0.00,VWS V14.01,2013-06-18 10:29:00,
2013-06-18 06:35:00,70.3,69.7,30.02,East,82,0.0,0.0,98,0.00,,OVC008,0.00,VWS V14.01,2013-06-18 10:35:00,
2013-06-18 06:40:00,70.4,69.8,30.02,East,82,0.0,0.0,98,0.00,,OVC008,0.00,VWS V14.01,2013-06-18 10:40:00,
2013-06-18 06:47:00,70.4,69.8,30.02,East,95,0.0,0.0,98,0.00,,OVC008,0.00,VWS V14.01,2013-06-18 10:47:00,
2013-06-18 06:53:00,70.4,69.8,30.02,East,95,0.0,0.0,98,0.00,,OVC008,0.00,VWS V14.01,2013-06-18 10:53:00,
2013-06-18 06:59:00,70.4,69.8,30.02,East,100,0.0,1.0,98,0.00,,OVC008,0.00,VWS V14.01,2013-06-18 10:59:00,
2013-06-18 07:05:00,70.6,70.0,30.03,East,100,0.0,0.0,98,0.00,,OVC012,0.00,VWS V14.01,2013-06-18 11:05:00,
2013-06-18 07:10:00,70.6,70.0,30.03,East,100,0.0,1.0,98,0.00,,OVC012,0.00,VWS V14.01,2013-06-18 11:10:00,
2013-06-18 07:15:00,70.6,69.7,30.03,East,100,0.0,0.0,97,0.00,,OVC012,0.00,VWS V14.01,2013-06-18 11:15:00,
2013-06-18 07:21:00,70.6,69.7,30.03,East,100,0.0,0.0,97,0.00,,OVC012,0.00,VWS V14.01,2013-06-18 11:21:00,
2013-06-18 07:26:00,70.8,69.9,30.03,East,100,0.0,0.0,97,0.00,,OVC012,0.00,VWS V14.01,2013-06-18 11:26:00,
2013-06-18 07:32:00,70.8,69.9,30.04,East,100,0.0,0.0,97,0.00,,OVC012,0.00,VWS V14.01,2013-06-18 11:32:00,
2013-06-18 07:38:00,70.8,69.9,30.04,East,100,0.0,0.0,97,0.00,,OVC012,0.00,VWS V14.01,2013-06-18 11:38:00,
2013-06-18 07:44:00,70.9,70.0,30.04,East,100,0.0,1.0,97,0.00,,OVC012,0.00,VWS V14.01,2013-06-18 11:44:00,
2013-06-18 07:50:00,70.9,70.0,30.03,East,100,0.0,1.0,97,0.00,,OVC012,0.00,VWS V14.01,2013-06-18 11:50:00,
2013-06-18 07:56:00,70.9,70.0,30.03,South,181,0.0,0.0,97,0.00,,OVC012,0.00,VWS V14.01,2013-06-18 11:56:00,
2013-06-18 08:02:00,70.9,70.0,30.03,South,181,0.0,0.0,97,0.00,,-RA,0.00,VWS V14.01,2013-06-18 12:02:00,
2013-06-18 08:08:00,71.1,70.2,30.03,South,181,0.0,0.0,97,0.00,,-RA,0.00,VWS V14.01,2013-06-18 12:08:00,
2013-06-18 08:14:00,71.1,70.2,30.03,South,181,0.0,0.0,97,0.00,,-RA,0.00,VWS V14.01,2013-06-18 12:14:00,
2013-06-18 08:20:00,71.1,70.2,30.03,South,181,0.0,0.0,97,0.00,,-RA,0.00,VWS V14.01,2013-06-18 12:20:00,
2013-06-18 08:26:00,71.1,70.2,30.03,South,181,0.0,0.0,97,0.00,,-RA,0.00,VWS V14.01,2013-06-18 12:26:00,
2013-06-18 08:32:00,71.1,70.2,30.02,South,181,0.0,0.0,97,0.00,,-RA,0.00,VWS V14.01,2013-06-18 12:32:00,
2013-06-18 08:38:00,71.3,70.4,30.02,South,183,0.0,2.0,97,0.00,,-RA,0.00,VWS V14.01,2013-06-18 12:38:00,
2013-06-18 08:44:00,71.3,70.4,30.02,South,183,0.0,0.0,97,0.00,,-RA,0.00,VWS V14.01,2013-06-18 12:44:00,
2013-06-18 08:50:00,71.3,70.4,30.02,South,182,0.0,1.0,97,0.00,,-RA,0.00,VWS V14.01,2013-06-18 12:50:00,
2013-06-18 08:56:00,71.3,70.4,30.02,South,182,0.0,1.0,97,0.00,,-RA,0.00,VWS V14.01,2013-06-18 12:56:00,
2013-06-18 09:02:00,71.3,70.4,30.03,WSW,246,0.0,2.0,97,0.00,,OVC017,0.00,VWS V14.01,2013-06-18 13:02:00,
2013-06-18 09:08:00,71.3,70.4,30.03,WSW,246,0.0,2.0,97,0.00,,OVC017,0.00,VWS V14.01,2013-06-18 13:08:00,
2013-06-18 09:15:00,71.5,70.6,30.03,West,278,0.0,0.0,97,0.00,,OVC017,0.00,VWS V14.01,2013-06-18 13:15:00,
2013-06-18 09:20:00,71.6,70.7,30.02,West,278,0.0,0.0,97,0.00,,OVC017,0.00,VWS V14.01,2013-06-18 13:20:00,
2013-06-18 09:27:00,71.8,70.6,30.02,West,278,0.0,0.0,96,0.00,,OVC017,0.00,VWS V14.01,2013-06-18 13:27:00,
2013-06-18 09:33:00,71.8,70.6,30.02,West,278,0.0,0.0,96,0.00,,OVC017,0.00,VWS V14.01,2013-06-18 13:33:00,
2013-06-18 09:39:00,72.0,70.5,30.02,West,278,0.0,1.0,95,0.00,,OVC017,0.00,VWS V14.01,2013-06-18 13:39:00,
2013-06-18 09:45:00,72.1,70.6,30.02,West,278,0.0,0.0,95,0.00,,OVC017,0.00,VWS V14.01,2013-06-18 13:45:00,
2013-06-18 09:50:00,72.3,70.8,30.02,West,278,0.0,0.0,95,0.00,,OVC017,0.00,VWS V14.01,2013-06-18 13:50:00,
2013-06-18 09:57:00,72.3,70.5,30.02,West,278,0.0,1.0,94,0.00,,OVC017,0.00,VWS V14.01,2013-06-18 13:57:00,
2013-06-18 10:03:00,72.5,70.7,30.02,West,278,0.0,0.0,94,0.00,,OVC020,0.00,VWS V14.01,2013-06-18 14:03:00,
2013-06-18 10:09:00,72.5,70.7,30.02,West,278,0.0,1.0,94,0.00,,OVC020,0.00,VWS V14.01,2013-06-18 14:09:00,
2013-06-18 10:15:00,72.7,70.9,30.01,West,278,0.0,0.0,94,0.00,,OVC020,0.00,VWS V14.01,2013-06-18 14:15:00,
2013-06-18 10:20:00,72.8,70.7,30.01,West,278,0.0,0.0,93,0.00,,OVC020,0.00,VWS V14.01,2013-06-18 14:20:00,
2013-06-18 10:27:00,73.2,71.1,30.01,West,278,0.0,0.0,93,0.00,,OVC020,0.00,VWS V14.01,2013-06-18 14:27:00,
2013-06-18 10:33:00,73.5,71.4,30.01,West,278,0.0,0.0,93,0.00,,OVC020,0.00,VWS V14.01,2013-06-18 14:33:00,
2013-06-18 10:39:00,73.7,71.2,30.01,West,278,0.0,0.0,92,0.00,,OVC020,0.00,VWS V14.01,2013-06-18 14:39:00,
2013-06-18 10:45:00,73.9,71.4,30.01,West,278,0.0,0.0,92,0.00,,OVC020,0.00,VWS V14.01,2013-06-18 14:45:00,
2013-06-18 10:50:00,73.9,71.1,30.01,West,278,0.0,1.0,91,0.00,,OVC020,0.00,VWS V14.01,2013-06-18 14:50:00,
2013-06-18 10:56:00,73.9,70.8,30.01,West,276,0.0,2.0,90,0.00,,OVC020,0.00,VWS V14.01,2013-06-18 14:56:00,
2013-06-18 11:02:00,74.0,70.9,30.01,West,276,0.0,0.0,90,0.00,,OVC015,0.00,VWS V14.01,2013-06-18 15:02:00,
2013-06-18 11:08:00,74.2,70.8,30.01,West,276,0.0,1.0,89,0.00,,OVC015,0.00,VWS V14.01,2013-06-18 15:08:00,
2013-06-18 11:14:00,74.2,70.8,30.01,SW,231,0.0,2.0,89,0.00,,OVC015,0.00,VWS V14.01,2013-06-18 15:14:00,
2013-06-18 11:20:00,74.4,70.9,30.01,SW,229,0.0,2.0,89,0.00,,OVC015,0.00,VWS V14.01,2013-06-18 15:20:00,
2013-06-18 11:26:00,74.6,71.2,30.01,SW,229,0.0,1.0,89,0.00,,OVC015,0.00,VWS V14.01,2013-06-18 15:26:00,
2013-06-18 11:32:00,74.6,70.8,30.01,SW,229,0.0,0.0,88,0.00,,OVC015,0.00,VWS V14.01,2013-06-18 15:32:00,
2013-06-18 11:38:00,74.6,70.8,30.01,SW,229,1.0,1.0,88,0.00,,OVC015,0.00,VWS V14.01,2013-06-18 15:38:00,
2013-06-18 11:44:00,74.4,70.6,30.01,SW,229,0.0,1.0,88,0.00,,OVC015,0.00,VWS V14.01,2013-06-18 15:44:00,
2013-06-18 11:50:00,74.2,70.4,30.02,SW,221,0.0,1.0,88,0.00,,OVC015,0.00,VWS V14.01,2013-06-18 15:50:00,
2013-06-18 11:56:00,74.2,70.8,30.02,SW,221,0.0,1.0,89,0.00,,OVC015,0.00,VWS V14.01,2013-06-18 15:56:00,
2013-06-18 12:02:00,74.2,70.4,30.02,SW,221,0.0,0.0,88,0.00,,OVC150,0.00,VWS V14.01,2013-06-18 16:02:00,
2013-06-18 12:08:00,74.2,70.4,30.02,SW,214,0.0,3.0,88,0.00,,OVC150,0.00,VWS V14.01,2013-06-18 16:08:00,
2013-06-18 12:14:00,74.0,70.2,30.02,SW,214,0.0,0.0,88,0.00,,OVC150,0.00,VWS V14.01,2013-06-18 16:14:00,
2013-06-18 12:20:00,74.2,70.4,30.01,SW,214,0.0,1.0,88,0.00,,OVC150,0.00,VWS V14.01,2013-06-18 16:20:00,
2013-06-18 12:26:00,74.4,70.9,30.01,SW,214,0.0,0.0,89,0.00,,OVC150,0.00,VWS V14.01,2013-06-18 16:26:00,
2013-06-18 12:32:00,74.6,70.8,30.01,SW,214,0.0,0.0,88,0.00,,OVC150,0.00,VWS V14.01,2013-06-18 16:32:00,
2013-06-18 12:38:00,75.1,71.6,30.01,SW,215,0.0,1.0,89,0.00,,OVC150,0.00,VWS V14.01,2013-06-18 16:38:00,
2013-06-18 12:44:00,75.6,70.8,30.01,ENE,71,0.0,1.0,85,0.00,,OVC150,0.00,VWS V14.01,2013-06-18 16:44:00,
2013-06-18 12:50:00,76.0,70.5,29.99,SSW,209,0.0,1.0,83,0.00,,OVC150,0.00,VWS V14.01,2013-06-18 16:50:00,
2013-06-18 12:56:00,76.0,70.5,29.99,SW,231,0.0,3.0,83,0.00,,OVC150,0.00,VWS V14.01,2013-06-18 16:56:00,
2013-06-18 13:02:00,76.0,70.8,29.99,SW,231,0.0,0.0,84,0.00,,BKN200,0.00,VWS V14.01,2013-06-18 17:02:00,
2013-06-18 13:08:00,76.0,70.8,29.99,SW,231,0.0,1.0,84,0.00,,BKN200,0.00,VWS V14.01,2013-06-18 17:08:00,
2013-06-18 13:15:00,76.0,70.8,29.99,SW,231,0.0,1.0,84,0.00,,BKN200,0.00,VWS V14.01,2013-06-18 17:15:00,
2013-06-18 13:21:00,76.5,71.0,29.99,SW,231,0.0,1.0,83,0.00,,BKN200,0.00,VWS V14.01,2013-06-18 17:21:00,
2013-06-18 13:27:00,77.4,71.1,29.99,SW,231,0.0,1.0,81,0.00,,BKN200,0.00,VWS V14.01,2013-06-18 17:27:00,
2013-06-18 13:33:00,78.1,71.4,29.99,West,281,1.0,1.0,80,0.00,,BKN200,0.00,VWS V14.01,2013-06-18 17:33:00,
2013-06-18 13:39:00,78.3,71.3,29.99,West,280,0.0,2.0,79,0.00,,BKN200,0.00,VWS V14.01,2013-06-18 17:39:00,
2013-06-18 13:45:00,78.3,71.3,29.98,West,269,0.0,0.0,79,0.00,,BKN200,0.00,VWS V14.01,2013-06-18 17:45:00,
2013-06-18 13:50:00,78.3,70.9,29.98,West,269,0.0,1.0,78,0.00,,BKN200,0.00,VWS V14.01,2013-06-18 17:50:00,
2013-06-18 13:57:00,78.3,71.3,29.98,West,269,0.0,1.0,79,0.00,,BKN200,0.00,VWS V14.01,2013-06-18 17:57:00,
2013-06-18 14:03:00,78.3,70.9,29.98,WSW,255,0.0,2.0,78,0.00,,OVC200,0.00,VWS V14.01,2013-06-18 18:03:00,
2013-06-18 14:09:00,77.9,70.5,29.98,WSW,249,0.0,3.0,78,0.00,,OVC200,0.00,VWS V14.01,2013-06-18 18:09:00,
2013-06-18 14:15:00,77.9,70.5,29.97,NNW,347,2.0,2.0,78,0.00,,OVC200,0.00,VWS V14.01,2013-06-18 18:15:00,
2013-06-18 14:21:00,78.1,70.3,29.97,NNW,335,0.0,2.0,77,0.00,,OVC200,0.00,VWS V14.01,2013-06-18 18:21:00,
2013-06-18 14:26:00,78.8,71.0,29.97,South,169,0.0,3.0,77,0.00,,OVC200,0.00,VWS V14.01,2013-06-18 18:26:00,
2013-06-18 14:32:00,79.9,70.9,29.96,WSW,248,0.0,0.0,74,0.00,,OVC200,0.00,VWS V14.01,2013-06-18 18:32:00,
2013-06-18 14:38:00,80.7,71.7,29.96,West,281,0.0,2.0,74,0.00,,OVC200,0.00,VWS V14.01,2013-06-18 18:38:00,
2013-06-18 14:44:00,81.2,71.3,29.96,South,179,0.0,1.0,72,0.00,,OVC200,0.00,VWS V14.01,2013-06-18 18:44:00,
2013-06-18 14:50:00,81.4,71.1,29.96,West,276,2.0,3.0,71,0.00,,OVC200,0.00,VWS V14.01,2013-06-18 18:50:00,
2013-06-18 14:56:00,81.1,70.8,29.96,SW,234,0.0,5.0,71,0.00,,OVC200,0.00,VWS V14.01,2013-06-18 18:56:00,
2013-06-18 15:02:00,80.9,71.0,29.94,NNW,344,0.0,1.0,72,0.00,,BKN200,0.00,VWS V14.01,2013-06-18 19:02:00,
2013-06-18 15:08:00,81.2,71.3,29.94,North,1,1.0,1.0,72,0.00,,BKN200,0.00,VWS V14.01,2013-06-18 19:08:00,
2013-06-18 15:14:00,81.8,71.5,29.94,NNW,342,0.0,3.0,71,0.00,,BKN200,0.00,VWS V14.01,2013-06-18 19:14:00,
2013-06-18 15:20:00,82.0,71.7,29.94,WNW,303,0.0,3.0,71,0.00,,BKN200,0.00,VWS V14.01,2013-06-18 19:20:00,
2013-06-18 15:26:00,82.4,71.6,29.94,WNW,303,1.0,2.0,70,0.00,,BKN200,0.00,VWS V14.01,2013-06-18 19:26:00,
2013-06-18 15:32:00,81.6,70.9,29.94,WNW,303,0.0,0.0,70,0.00,,BKN200,0.00,VWS V14.01,2013-06-18 19:32:00,
2013-06-18 15:39:00,81.4,71.1,29.94,WNW,302,0.0,1.0,71,0.00,,BKN200,0.00,VWS V14.01,2013-06-18 19:39:00,
2013-06-18 15:45:00,81.1,71.2,29.94,WNW,302,0.0,1.0,72,0.00,,BKN200,0.00,VWS V14.01,2013-06-18 19:45:00,
2013-06-18 15:51:00,81.1,72.0,29.94,NW,320,0.0,1.0,74,0.00,,BKN200,0.00,VWS V14.01,2013-06-18 19:51:00,
2013-06-18 15:57:00,81.2,72.1,29.94,NW,320,0.0,0.0,74,0.00,,BKN200,0.00,VWS V14.01,2013-06-18 19:57:00,
2013-06-18 16:03:00,81.6,70.9,29.92,ENE,61,0.0,1.0,70,0.00,,BKN200,0.00,VWS V14.01,2013-06-18 20:03:00,
2013-06-18 16:09:00,81.4,71.9,29.92,ENE,61,0.0,1.0,73,0.00,,BKN200,0.00,VWS V14.01,2013-06-18 20:09:00,
2013-06-18 16:15:00,81.6,72.5,29.92,ENE,61,0.0,0.0,74,0.00,,BKN200,0.00,VWS V14.01,2013-06-18 20:15:00,
2013-06-18 16:20:00,82.0,72.9,29.92,ENE,61,0.0,0.0,74,0.00,,BKN200,0.00,VWS V14.01,2013-06-18 20:20:00,
2013-06-18 16:26:00,82.2,72.7,29.92,ENE,61,0.0,1.0,73,0.00,,BKN200,0.00,VWS V14.01,2013-06-18 20:26:00,
2013-06-18 16:31:00,82.0,72.5,29.91,SSE,150,0.0,2.0,73,0.00,,BKN200,0.00,VWS V14.01,2013-06-18 20:31:00,
2013-06-18 16:36:00,81.8,72.3,29.91,SSE,150,0.0,0.0,73,0.00,,BKN200,0.00,VWS V14.01,2013-06-18 20:36:00,
2013-06-18 16:42:00,82.0,72.9,29.91,NE,40,0.0,0.0,74,0.00,,BKN200,0.00,VWS V14.01,2013-06-18 20:42:00,
2013-06-18 16:48:00,81.8,72.3,29.91,NE,40,0.0,1.0,73,0.00,,BKN200,0.00,VWS V14.01,2013-06-18 20:48:00,
2013-06-18 16:54:00,81.6,72.5,29.91,NNE,24,0.0,1.0,74,0.00,,BKN200,0.00,VWS V14.01,2013-06-18 20:54:00,
2013-06-18 17:00:00,82.2,72.7,29.91,NNE,24,0.0,1.0,73,0.00,,BKN200,0.00,VWS V14.01,2013-06-18 21:00:00,
2013-06-18 17:06:00,82.8,72.9,29.91,NNE,24,0.0,0.0,72,0.00,,BKN200,0.00,VWS V14.01,2013-06-18 21:06:00,
2013-06-18 17:13:00,82.4,72.9,29.91,NNE,22,0.0,0.0,73,0.00,,BKN200,0.00,VWS V14.01,2013-06-18 21:13:00,
2013-06-18 17:19:00,81.8,72.7,29.89,NNE,25,0.0,1.0,74,0.00,,BKN200,0.00,VWS V14.01,2013-06-18 21:19:00,
2013-06-18 17:25:00,81.2,72.5,29.89,NNE,25,0.0,0.0,75,0.00,,BKN200,0.00,VWS V14.01,2013-06-18 21:25:00,
2013-06-18 17:31:00,80.7,72.4,29.89,NW,319,0.0,3.0,76,0.00,,BKN200,0.00,VWS V14.01,2013-06-18 21:31:00,
2013-06-18 17:37:00,80.1,71.9,29.89,NW,319,0.0,0.0,76,0.00,,BKN200,0.00,VWS V14.01,2013-06-18 21:37:00,
2013-06-18 17:43:00,79.8,72.3,29.89,NW,319,0.0,0.0,78,0.00,,BKN200,0.00,VWS V14.01,2013-06-18 21:43:00,
2013-06-18 17:49:00,78.8,72.5,29.88,NW,321,0.0,2.0,81,0.01,,BKN200,0.01,VWS V14.01,2013-06-18 21:49:00,
2013-06-18 17:55:00,78.1,72.9,29.88,NW,321,0.0,0.0,84,0.03,,BKN200,0.03,VWS V14.01,2013-06-18 21:55:00,
2013-06-18 18:01:00,77.2,73.0,29.88,NW,321,0.0,0.0,87,0.08,,BKN200,0.08,VWS V14.01,2013-06-18 22:01:00,
2013-06-18 18:07:00,76.0,73.2,29.88,NW,319,0.0,2.0,91,0.19,,BKN200,0.19,VWS V14.01,2013-06-18 22:07:00,
2013-06-18 18:13:00,75.1,72.9,29.88,South,181,0.0,3.0,93,0.39,,BKN200,0.39,VWS V14.01,2013-06-18 22:13:00,
2013-06-18 18:19:00,74.4,72.6,29.88,SW,226,0.0,4.0,94,0.39,,BKN200,0.39,VWS V14.01,2013-06-18 22:19:00,
2013-06-18 18:25:00,73.7,72.2,29.88,SW,226,0.0,0.0,95,0.39,,BKN200,0.39,VWS V14.01,2013-06-18 22:25:00,
2013-06-18 18:31:00,73.2,71.7,29.90,SW,226,0.0,1.0,95,0.39,,BKN200,0.39,VWS V14.01,2013-06-18 22:31:00,
2013-06-18 18:36:00,72.7,71.5,29.90,SW,229,0.0,1.0,96,0.52,,BKN200,0.52,VWS V14.01,2013-06-18 22:36:00,
2013-06-18 18:42:00,72.3,71.4,29.90,WNW,293,1.0,3.0,97,0.71,,BKN200,0.71,VWS V14.01,2013-06-18 22:42:00,
2013-06-18 18:48:00,71.5,70.6,29.92,WSW,258,0.0,3.0,97,0.94,,BKN200,0.94,VWS V14.01,2013-06-18 22:48:00,
2013-06-18 18:54:00,71.1,70.5,29.92,WSW,258,0.0,1.0,98,0.96,,BKN200,0.98,VWS V14.01,2013-06-18 22:54:00,
2013-06-18 19:00:00,70.9,70.3,29.92,WSW,258,0.0,1.0,98,0.97,,BKN200,0.99,VWS V14.01,2013-06-18 23:00:00,
2013-06-18 19:06:00,71.1,70.8,29.92,WSW,258,0.0,1.0,99,0.91,,-RA,0.99,VWS V14.01,2013-06-18 23:06:00,
2013-06-18 19:12:00,71.1,70.8,29.92,West,273,0.0,3.0,99,0.67,,-RA,0.99,VWS V14.01,2013-06-18 23:12:00,
2013-06-18 19:18:00,70.9,70.6,29.91,SSW,207,0.0,3.0,99,0.67,,-RA,0.99,VWS V14.01,2013-06-18 23:18:00,
2013-06-18 19:24:00,70.9,70.6,29.91,SSW,206,0.0,1.0,99,0.60,,-RA,0.99,VWS V14.01,2013-06-18 23:24:00,
2013-06-18 19:30:00,70.9,70.9,29.92,SSW,207,0.0,1.0,100,0.60,,-RA,0.99,VWS V14.01,2013-06-18 23:30:00,
2013-06-18 19:36:00,70.9,70.9,29.92,SSW,207,0.0,0.0,100,0.60,,-RA,0.99,VWS V14.01,2013-06-18 23:36:00,
2013-06-18 19:42:00,70.9,70.9,29.92,SSW,206,0.0,0.0,100,0.36,,-RA,0.99,VWS V14.01,2013-06-18 23:42:00,
2013-06-18 19:49:00,70.9,70.9,29.93,SE,134,0.0,2.0,100,0.36,,-RA,0.99,VWS V14.01,2013-06-18 23:49:00,
2013-06-18 19:55:00,70.6,70.6,29.93,SE,133,0.0,1.0,100,0.02,,-RA,0.99,VWS V14.01,2013-06-18 23:55:00,
2013-06-18 20:01:00,70.6,70.6,29.93,SE,133,0.0,1.0,100,0.02,,-RA,0.99,VWS V14.01,2013-06-19 00:01:00,
2013-06-18 20:07:00,70.4,70.4,29.93,SE,133,0.0,0.0,100,0.00,,-RA,0.99,VWS V14.01,2013-06-19 00:07:00,
2013-06-18 20:13:00,70.4,70.4,29.93,SE,133,0.0,0.0,100,0.00,,-RA,0.99,VWS V14.01,2013-06-19 00:13:00,
2013-06-18 20:19:00,70.3,70.3,29.93,SE,133,0.0,0.0,100,0.00,,-RA,0.99,VWS V14.01,2013-06-19 00:19:00,
2013-06-18 20:25:00,70.1,70.1,29.93,SE,133,0.0,2.0,100,0.00,,-RA,0.99,VWS V14.01,2013-06-19 00:25:00,
2013-06-18 20:31:00,70.1,70.1,29.94,SE,133,0.0,2.0,100,0.00,,-RA,0.99,VWS V14.01,2013-06-19 00:31:00,
2013-06-18 20:37:00,70.1,70.1,29.94,SE,133,0.0,0.0,100,0.00,,-RA,0.99,VWS V14.01,2013-06-19 00:37:00,
2013-06-18 20:43:00,70.1,70.1,29.94,SE,133,0.0,0.0,100,0.00,,-RA,0.99,VWS V14.01,2013-06-19 00:43:00,
2013-06-18 21:00:00,69.9,69.9,29.95,North,0,0.0,0.0,100,0.00,,-RA,0.99,VWS V14.01,2013-06-19 01:00:00,
2013-06-18 21:16:00,69.9,69.9,29.94,SE,133,0.0,0.0,100,0.00,,-RA,0.99,VWS V14.01,2013-06-19 01:16:00,
2013-06-18 21:22:00,69.9,69.9,29.94,SE,133,0.0,0.0,100,0.00,,-RA,0.99,VWS V14.01,2013-06-19 01:22:00,
2013-06-18 21:28:00,69.9,69.9,29.94,SE,133,0.0,0.0,100,0.00,,-RA,0.99,VWS V14.01,2013-06-19 01:28:00,
2013-06-18 21:34:00,69.9,69.9,29.93,SE,133,0.0,0.0,100,0.00,,-RA,0.99,VWS V14.01,2013-06-19 01:34:00,
2013-06-18 21:40:00,69.9,69.9,29.93,SE,133,0.0,0.0,100,0.00,,-RA,0.99,VWS V14.01,2013-06-19 01:40:00,
2013-06-18 21:47:00,69.8,69.8,29.95,SE,133,0.0,0.0,100,0.00,,-RA,0.99,VWS V14.01,2013-06-19 01:47:00,
2013-06-18 21:53:00,69.8,69.8,29.95,SE,133,0.0,0.0,100,0.00,,-RA,0.99,VWS V14.01,2013-06-19 01:53:00,
2013-06-18 21:59:00,69.9,69.9,29.95,SE,133,0.0,0.0,100,0.00,,-RA,0.99,VWS V14.01,2013-06-19 01:59:00,
2013-06-18 22:05:00,69.8,69.8,29.96,SE,133,0.0,0.0,100,0.00,,-RA,0.99,VWS V14.01,2013-06-19 02:05:00,
2013-06-18 22:11:00,69.8,69.8,29.96,SE,133,0.0,0.0,100,0.00,,-RA,0.99,VWS V14.01,2013-06-19 02:11:00,
2013-06-18 22:17:00,69.9,69.9,29.98,SE,133,0.0,0.0,100,0.00,,-RA,0.99,VWS V14.01,2013-06-19 02:17:00,
2013-06-18 22:23:00,69.9,69.9,29.98,SE,133,0.0,0.0,100,0.00,,-RA,0.99,VWS V14.01,2013-06-19 02:23:00,
2013-06-18 22:29:00,69.9,69.9,29.98,SE,133,0.0,0.0,100,0.00,,-RA,0.99,VWS V14.01,2013-06-19 02:29:00,
2013-06-18 22:35:00,69.8,69.8,29.98,SE,133,0.0,0.0,100,0.00,,-RA,0.99,VWS V14.01,2013-06-19 02:35:00,
2013-06-18 22:40:00,69.9,69.9,29.98,SE,133,0.0,0.0,100,0.00,,-RA,0.99,VWS V14.01,2013-06-19 02:40:00,
2013-06-18 22:47:00,69.9,69.9,29.98,SE,133,0.0,0.0,100,0.00,,-RA,0.99,VWS V14.01,2013-06-19 02:47:00,
2013-06-18 22:53:00,69.9,69.9,29.98,SE,133,0.0,0.0,100,0.00,,-RA,0.99,VWS V14.01,2013-06-19 02:53:00,
2013-06-18 22:59:00,69.9,69.9,29.98,SE,133,0.0,0.0,100,0.00,,-RA,0.99,VWS V14.01,2013-06-19 02:59:00,
2013-06-18 23:05:00,69.8,69.8,29.98,SE,133,0.0,0.0,100,0.00,,OVC130,0.99,VWS V14.01,2013-06-19 03:05:00,
2013-06-18 23:11:00,69.6,69.6,29.98,SE,133,0.0,0.0,100,0.00,,OVC130,0.99,VWS V14.01,2013-06-19 03:11:00,
2013-06-18 23:17:00,69.3,69.3,29.98,SE,133,0.0,0.0,100,0.00,,OVC130,0.99,VWS V14.01,2013-06-19 03:17:00,
2013-06-18 23:23:00,68.9,68.9,29.98,SE,133,0.0,0.0,100,0.00,,OVC130,0.99,VWS V14.01,2013-06-19 03:23:00,
2013-06-18 23:29:00,68.6,68.6,29.98,SSW,211,0.0,3.0,100,0.00,,OVC130,0.99,VWS V14.01,2013-06-19 03:29:00,
2013-06-18 23:35:00,68.3,68.3,29.99,SSW,212,0.0,0.0,100,0.00,,OVC130,0.99,VWS V14.01,2013-06-19 03:35:00,
2013-06-18 23:41:00,67.9,67.9,29.99,SSW,212,0.0,0.0,100,0.00,,OVC130,0.99,VWS V14.01,2013-06-19 03:41:00,
2013-06-18 23:46:00,67.8,67.8,29.99,SSW,211,0.0,0.0,100,0.00,,OVC130,0.99,VWS V14.01,2013-06-19 03:46:00,
2013-06-18 23:52:00,67.8,67.8,29.99,SSW,211,0.0,0.0,100,0.00,,OVC130,0.99,VWS V14.01,2013-06-19 03:52:00,
2013-06-18 23:58:00,67.8,67.8,29.99,SSW,212,0.0,0.0,100,0.00,,OVC130,0.99,VWS V14.01,2013-06-19 03:58:00,